Track ONEWEB-0362 now! 10-day predictions ONEWEB-0362 is classified as:
1 49288U 21090K 22144.91667824 -.00042897 00000-0 -10766+0 0 9990 2 49288 87.9232 239.9550 0002104 90.3648 284.6150 13.19743210 1305